DLH511 SKBO-EDDF

Flight info

Callsign DLH511
Flight time N/A
Altitude 31000
Route OSUSU4R AKROB DCT MAVDA DCT KIKAS UW50 PBL UP533 OPTUB/N0496F330 UP533 CITRS/M083F330 DCT 21N055W/M083F350 24N050W 30N040W 35N030W/M083F370 41N020W DCT PASAS DCT SIVIR DCT RIVAK/N0476F370 DCT AKEMO/N0475F380 DCT GIGOT DCT OBATO UM163 TSU DCT OQQAL DCT RANUX/N0477F390 DCT VALEK DCT LIPNI DCT LIMGO/N0478F350 Z111 TUTOV/N0422F230 Z111 RAMOB IMCOM1A
Aircraft A343/H-SDE2E3FGHIJ4J5M1RWXY/LB1D1

Departure

Time N/A
Airport El Dorado International Airport (SKBO)

Arrival

Time 2026-05-06 18:46
Airport Frankfurt Main Airport (EDDF)
Time Latitude Longitude Altitude Speed Heading
2026-05-06 18:17 49.90199 6.71873 38697 ft 491 kts 19°
2026-05-06 18:18 49.96821 6.74428 38748 ft 489 kts 10°
2026-05-06 18:18 50.00151 6.75472 38170 ft 489 kts 10°
2026-05-06 18:18 50.03512 6.76529 37348 ft 493 kts 10°
2026-05-06 18:19 50.06883 6.77597 36646 ft 495 kts 10°
2026-05-06 18:19 50.10257 6.78672 36007 ft 496 kts 11°
2026-05-06 18:19 50.12090 6.79258 35659 ft 496 kts 11°
2026-05-06 18:20 50.14671 6.80085 35186 ft 496 kts 11°
2026-05-06 18:20 50.18055 6.81172 34577 ft 495 kts 11°
2026-05-06 18:20 50.21380 6.82241 33968 ft 494 kts 11°
2026-05-06 18:21 50.24744 6.83325 33126 ft 492 kts 11°
2026-05-06 18:21 50.28094 6.84405 32216 ft 490 kts 11°
2026-05-06 18:21 50.31359 6.85926 31206 ft 491 kts 25°
2026-05-06 18:21 50.34252 6.88710 30236 ft 489 kts 40°
2026-05-06 18:22 50.36567 6.92577 29129 ft 487 kts 56°
2026-05-06 18:22 50.38151 6.97254 27904 ft 486 kts 71°
2026-05-06 18:22 50.38872 7.02405 26789 ft 483 kts 88°
2026-05-06 18:22 50.38674 7.07606 25901 ft 476 kts 103°
2026-05-06 18:23 50.37957 7.12619 24879 ft 466 kts 107°
2026-05-06 18:23 50.36924 7.17336 23558 ft 450 kts 115°
2026-05-06 18:23 50.35420 7.21550 21828 ft 438 kts 129°
2026-05-06 18:23 50.33288 7.24844 20257 ft 427 kts 147°
2026-05-06 18:24 50.31578 7.26312 19660 ft 418 kts 160°
2026-05-06 18:24 50.28002 7.28376 19229 ft 410 kts 163°
2026-05-06 18:24 50.25320 7.29833 18752 ft 407 kts 163°
2026-05-06 18:24 50.22680 7.31405 18226 ft 407 kts 156°
2026-05-06 18:25 50.20331 7.33885 17630 ft 410 kts 138°
2026-05-06 18:25 50.19083 7.36178 17185 ft 412 kts 125°
2026-05-06 18:25 50.17828 7.40189 16575 ft 412 kts 112°
2026-05-06 18:25 50.16838 7.44370 16006 ft 409 kts 111°
2026-05-06 18:26 50.15871 7.48529 15433 ft 407 kts 111°
2026-05-06 18:26 50.14912 7.52605 14879 ft 404 kts 111°
2026-05-06 18:26 50.13937 7.56710 14300 ft 401 kts 111°
2026-05-06 18:26 50.12964 7.60780 13746 ft 399 kts 112°
2026-05-06 18:27 50.11994 7.64822 13142 ft 397 kts 112°
2026-05-06 18:27 50.10893 7.68729 12610 ft 391 kts 121°
2026-05-06 18:27 50.09444 7.72236 12422 ft 381 kts 126°
2026-05-06 18:27 50.07939 7.75631 12185 ft 381 kts 127°
2026-05-06 18:28 50.06428 7.79016 11929 ft 381 kts 127°
2026-05-06 18:28 50.04921 7.82394 11677 ft 378 kts 126°
2026-05-06 18:28 50.03424 7.85746 11417 ft 376 kts 127°
2026-05-06 18:28 50.01938 7.89082 11150 ft 375 kts 126°
2026-05-06 18:29 50.00700 7.92636 10901 ft 377 kts 111°
2026-05-06 18:29 50.00247 7.96643 10719 ft 377 kts 90°
2026-05-06 18:29 50.00695 8.00656 10604 ft 378 kts 72°
2026-05-06 18:29 50.01600 8.04499 10454 ft 378 kts 69°
2026-05-06 18:30 50.02545 8.08264 10317 ft 378 kts 69°
2026-05-06 18:30 50.03491 8.12066 10215 ft 374 kts 69°
2026-05-06 18:30 50.04405 8.15778 10063 ft 360 kts 69°
2026-05-06 18:30 50.05287 8.19369 9909 ft 349 kts 69°
2026-05-06 18:31 50.06137 8.22826 9827 ft 335 kts 69°
2026-05-06 18:31 50.06965 8.26202 9822 ft 331 kts 69°
2026-05-06 18:31 50.07757 8.29477 9818 ft 316 kts 70°
2026-05-06 18:31 50.08510 8.32621 9823 ft 305 kts 70°
2026-05-06 18:32 50.09248 8.35709 9826 ft 304 kts 70°
2026-05-06 18:32 50.09989 8.38801 9822 ft 304 kts 70°
2026-05-06 18:32 50.10733 8.41892 9819 ft 304 kts 70°
2026-05-06 18:32 50.11473 8.44979 9836 ft 304 kts 70°
2026-05-06 18:33 50.12201 8.48023 9830 ft 304 kts 70°
2026-05-06 18:33 50.12940 8.51115 9828 ft 304 kts 70°
2026-05-06 18:33 50.13677 8.54198 9829 ft 304 kts 70°
2026-05-06 18:33 50.14415 8.57291 9829 ft 304 kts 70°
2026-05-06 18:34 50.15150 8.60380 9832 ft 304 kts 70°
2026-05-06 18:34 50.15886 8.63474 9828 ft 304 kts 70°
2026-05-06 18:34 50.16622 8.66570 9827 ft 304 kts 70°
2026-05-06 18:34 50.17357 8.69669 9826 ft 304 kts 70°
2026-05-06 18:35 50.18082 8.72729 9825 ft 304 kts 70°
2026-05-06 18:35 50.18824 8.75858 9823 ft 304 kts 70°
2026-05-06 18:35 50.19551 8.78921 9820 ft 304 kts 70°
2026-05-06 18:35 50.20286 8.82020 9690 ft 303 kts 70°
2026-05-06 18:36 50.21010 8.85103 9368 ft 302 kts 70°
2026-05-06 18:36 50.21729 8.88169 9017 ft 301 kts 70°
2026-05-06 18:36 50.22450 8.91228 8613 ft 299 kts 70°
2026-05-06 18:36 50.23161 8.94268 8186 ft 297 kts 70°
2026-05-06 18:37 50.23870 8.97308 7844 ft 297 kts 70°
2026-05-06 18:37 50.24356 9.00412 7509 ft 293 kts 90°
2026-05-06 18:37 50.24002 9.03462 7347 ft 281 kts 116°
2026-05-06 18:37 50.22875 9.05832 7190 ft 268 kts 144°
2026-05-06 18:38 50.21258 9.07046 7055 ft 253 kts 173°
2026-05-06 18:38 50.19566 9.06888 6890 ft 240 kts 202°
2026-05-06 18:38 50.18178 9.05603 6745 ft 232 kts 220°
2026-05-06 18:38 50.17059 9.03829 6528 ft 229 kts 233°
2026-05-06 18:39 50.16214 9.01739 6303 ft 227 kts 243°
2026-05-06 18:39 50.15577 8.99495 6055 ft 226 kts 249°
2026-05-06 18:39 50.15027 8.97202 5795 ft 225 kts 249°
2026-05-06 18:40 50.13963 8.92681 5387 ft 220 kts 249°
2026-05-06 18:40 50.13437 8.90468 5195 ft 216 kts 249°
2026-05-06 18:40 50.12913 8.88280 5031 ft 214 kts 249°
2026-05-06 18:40 50.12390 8.86110 4828 ft 214 kts 249°
2026-05-06 18:41 50.11869 8.83935 4559 ft 214 kts 249°
2026-05-06 18:41 50.11356 8.81771 4257 ft 212 kts 250°
2026-05-06 18:41 50.10844 8.79619 3958 ft 211 kts 250°
2026-05-06 18:41 50.10348 8.77538 3660 ft 203 kts 250°
2026-05-06 18:42 50.09870 8.75534 3440 ft 193 kts 251°
2026-05-06 18:42 50.09407 8.73589 3143 ft 189 kts 251°
2026-05-06 18:42 50.08960 8.71716 2871 ft 178 kts 251°
2026-05-06 18:42 50.08545 8.69977 2636 ft 166 kts 252°
2026-05-06 18:43 50.08160 8.68364 2441 ft 152 kts 252°
2026-05-06 18:43 50.07806 8.66882 2220 ft 140 kts 253°
2026-05-06 18:43 50.07476 8.65495 2051 ft 135 kts 253°
2026-05-06 18:43 50.07151 8.64134 1892 ft 133 kts 253°
2026-05-06 18:44 50.06819 8.62768 1739 ft 137 kts 253°
2026-05-06 18:44 50.06489 8.61395 1506 ft 134 kts 253°
2026-05-06 18:44 50.06179 8.60043 1313 ft 135 kts 256°
2026-05-06 18:44 50.05842 8.58665 1086 ft 134 kts 248°
2026-05-06 18:45 50.05530 8.57320 894 ft 135 kts 254°
2026-05-06 18:45 50.05205 8.55954 737 ft 135 kts 251°
2026-05-06 18:45 50.04873 8.54592 568 ft 134 kts 251°
2026-05-06 18:45 50.04551 8.53243 384 ft 132 kts 250°
2026-05-06 18:46 50.04263 8.52049 352 ft 94 kts 250°
2026-05-06 18:46 50.04100 8.51357 332 ft 40 kts 249°
2026-05-06 18:46 50.04012 8.51081 328 ft 27 kts 232°
2026-05-06 18:46 50.03883 8.50891 327 ft 18 kts 220°
2026-05-06 18:47 50.03808 8.50855 331 ft 5 kts 152°
2026-05-06 18:47 50.03788 8.50911 336 ft 6 kts 100°
2026-05-06 18:47 50.03804 8.51000 335 ft 13 kts 72°
2026-05-06 18:47 50.03843 8.51175 337 ft 22 kts 70°
2026-05-06 18:48 50.03905 8.51439 337 ft 27 kts 70°
2026-05-06 18:48 50.03971 8.51714 335 ft 27 kts 69°